Meteo Giornale » Osservazioni meteo Canada » Muskoka Ont
ore: 09:00 - Osservazioni Meteo Muskoka Ont
Lat. 44° 58' N Lon. 79° 18' W Alt. 280 metri s.l.m.
19 °C
Coperto
Temp. 24 Ore
19 °C
20 °C
Sud/Sud-Est
13 Km/h
Dew point 19 °C
Umidità 100 %
Visibilità 14 Km
Il sole sorge alle ore 06:39
Il sole tramonta alle ore 19:54
| Data e Ora | Cielo e Fenomeni | T °C | DP °C | Um. % | Pres. hPa | Vis. km | Vento km/h | |
|---|---|---|---|---|---|---|---|---|
| Oggi h: 09:00 | Coperto | 19 | 19 | 100 | 1014 | 14 | S/SE 13 | |
| Oggi h: 08:03 | Foschia | 19 | 19 | 100 | 1014 | 10 | S/SE 13 | |
| Oggi h: 08:00 | Foschia | 19 | 19 | 100 | 1014 | 8 | SE 13 | |
| Oggi h: 07:28 | Foschia | 19 | 19 | 100 | 1013 | 5 | SE 11.1 | |
| Oggi h: 07:12 | Foschia | 19 | 19 | 100 | 1013 | 2 | SE 7.4 | |
| Oggi h: 07:09 | Pioggia Foschia | 19 | 19 | 100 | 1013 | 2 | SE 9.3 | |
| Oggi h: 07:00 | Pioggia Foschia | 19 | 19 | 100 | 1013 | 2 | E/SE 9.3 | |
| Oggi h: 06:43 | Pioggia Foschia | 19 | 19 | 100 | 1013 | 2 | E/SE 9.3 | |
| Oggi h: 06:13 | Pioggia Foschia | 19 | 19 | 100 | 1013 | 2 | N 0 | |
| Oggi h: 06:10 | Pioggia Foschia | 19 | 19 | 100 | 1013 | 2 | N 3.7 | |
| Oggi h: 06:00 | Foschia | 19 | 19 | 100 | 1013 | 2 | N 5.5 | |
| Oggi h: 05:29 | Foschia | 19 | 19 | 100 | 1013 | 2 | N 5.5 | |
| Oggi h: 05:23 | Pioggia Foschia | 19 | 19 | 100 | 1013 | 2 | N 3.7 | |
| Oggi h: 05:12 | Pioggia Foschia | 19 | 19 | 100 | 1013 | 5 | N 7.4 | |
| Oggi h: 05:09 | Pioggia Foschia | 19 | 19 | 100 | 1013 | 2 | N 3.7 | |
| Oggi h: 05:00 | Foschia | 19 | 19 | 100 | 1013 | 2 | N 5.5 | |
| Oggi h: 04:56 | Foschia | 19 | 19 | 100 | 1013 | 2 | N 3.7 | |
| Oggi h: 04:47 | Pioggia Foschia | 19 | 19 | 100 | 1013 | 2 | SE 7.4 | |
| Oggi h: 04:36 | Pioggia Foschia | 19 | 19 | 100 | 1013 | 5 | N 5.5 | |
| Oggi h: 04:00 | Foschia | 19 | 19 | 100 | 1013 | 2 | S/SE 7.4 | |
| Oggi h: 03:00 | Foschia | 19 | 19 | 100 | 1013 | 2 | SE 7.4 | |
| Oggi h: 02:54 | Foschia | 19 | 19 | 100 | 1013 | 2 | SE 9.3 | |
| Oggi h: 02:21 | Foschia | 19 | 19 | 100 | 1013 | 8 | SE 9.3 | |
| Oggi h: 02:00 | Coperto | 19 | 19 | 100 | 1014 | 11 | S/SE 7.4 | |
| Oggi h: 01:18 | Coperto | 19 | 19 | 100 | 1014 | 14 | S/SE 13 | |
| Oggi h: 01:04 | Pioggia Foschia | 19 | 19 | 100 | 1014 | 10 | S/SE 13 | |
| Oggi h: 01:00 | Coperto | 19 | 19 | 100 | 1014 | 11 | S/SE 11.1 | |
| Oggi h: 00:02 | Coperto | 19 | 19 | 100 | 1014 | 14 | S/SE 13 | |
| Oggi h: 00:00 | Coperto | 19 | 19 | 100 | 1014 | 14 | S/SE 13 | |
| Ieri h: 23:43 | Coperto | 19 | 19 | 100 | 1014 | 14 | S/SE 13 | |
| Ieri h: 23:34 | Pioggia Foschia | 19 | 19 | 100 | 1014 | 10 | S/SE 14.8 | |
| Ieri h: 23:25 | Pioggia Foschia | 19 | 19 | 100 | 1014 | 5 | SE 11.1 | |
| Ieri h: 23:22 | Pioggia Foschia | 19 | 19 | 100 | 1015 | 2 | SE 11.1 | |
| Ieri h: 23:20 | Pioggia Foschia | 19 | 19 | 100 | 1014 | 2 | SE 13 | |
| Ieri h: 23:17 | Pioggia Foschia | 19 | 19 | 100 | 1015 | 2 | SE 11.1 | |
| Ieri h: 23:15 | Pioggia Foschia | 19 | 19 | 100 | 1015 | 2 | SE 11.1 | |
| Ieri h: 23:12 | Pioggia Foschia | 19 | 19 | 100 | 1015 | 6 | SE 11.1 | |
| Ieri h: 23:11 | Pioggia Foschia | 19 | 19 | 100 | 1015 | 8 | SE 11.1 | |
| Ieri h: 23:08 | Pioggia | 19 | 19 | 100 | 1015 | 14 | SE 11.1 | |
| Ieri h: 23:06 | Coperto | 19 | 19 | 100 | 1015 | 14 | S/SE 11.1 | |
| Ieri h: 23:00 | Pioggia | 19 | 19 | 100 | 1015 | 14 | SE 11.1 | |
| Ieri h: 22:48 | Pioggia | 19 | 19 | 100 | 1015 | 14 | S/SE 14.8 | |
| Ieri h: 22:45 | Coperto | 19 | 19 | 100 | 1015 | 14 | S/SE 13 | |
| Ieri h: 22:30 | Pioggia Foschia | 19 | 19 | 100 | 1015 | 10 | S 16.7 | |
| Ieri h: 22:27 | Pioggia Foschia | 19 | 19 | 100 | 1015 | 6 | S/SE 18.5 | |
| Ieri h: 22:17 | Pioggia Foschia | 19 | 19 | 100 | 1015 | 5 | S/SE 18.5 | |
| Ieri h: 22:13 | Pioggia Foschia | 19 | 19 | 100 | 1015 | 5 | S/SE 14.8 | |
| Ieri h: 22:07 | Pioggia Foschia | 19 | 19 | 100 | 1015 | 6 | S/SE 13 | |
| Ieri h: 22:04 | Pioggia Foschia | 19 | 19 | 100 | 1015 | 8 | S/SE 13 | |
| Ieri h: 22:00 | Pioggia | 19 | 19 | 100 | 1015 | 11 | S/SE 13 | |
| Ieri h: 21:31 | Pioggia Foschia | 19 | 19 | 100 | 1015 | 10 | SE 11.1 | |
| Ieri h: 21:19 | Pioggia Foschia | 19 | 19 | 100 | 1015 | 8 | SE 13 | |
| Ieri h: 21:12 | Pioggia | 19 | 19 | 100 | 1015 | 14 | SE 13 | |
| Ieri h: 21:00 | Coperto | 19 | 19 | 100 | 1015 | 14 | S/SE 16.7 | |
| Ieri h: 20:36 | Coperto | 19 | 19 | 100 | 1015 | 14 | S/SE 13 | |
| Ieri h: 20:32 | Coperto | 19 | 19 | 100 | 1015 | 14 | S/SE 11.1 | |
| Ieri h: 20:22 | Coperto | 19 | 19 | 100 | 1015 | 14 | S/SE 13 | |
| Ieri h: 20:21 | Coperto | 19 | 19 | 100 | 1015 | 14 | S/SE 13 | |
| Ieri h: 20:01 | Coperto | 19 | 19 | 100 | 1015 | 14 | S/SE 9.3 | |
| Ieri h: 20:00 | Pioggia | 19 | 19 | 100 | 1015 | 14 | S/SE 11.1 | |
| Ieri h: 19:42 | Pioggia | 19 | 19 | 100 | 1015 | 14 | S/SE 7.4 | |
| Ieri h: 19:14 | Pioggia | 19 | 19 | 100 | 1015 | 14 | S/SE 9.3 | |
| Ieri h: 19:00 | Pioggia | 19 | 19 | 100 | 1015 | 14 | SE 9.3 | |
| Ieri h: 18:27 | Pioggia | 20 | 20 | 100 | 1016 | 14 | S/SE 9.3 | |
| Ieri h: 18:21 | Pioggia | 20 | 20 | 100 | 1016 | 14 | S/SE 9.3 | |
| Ieri h: 18:17 | Coperto | 20 | 20 | 100 | 1016 | 14 | SE 7.4 | |
| Ieri h: 18:14 | Pioggia | 20 | 20 | 100 | 1016 | 14 | SE 7.4 | |
| Ieri h: 18:13 | Pioggia | 20 | 20 | 100 | 1016 | 14 | SE 9.3 | |
| Ieri h: 18:00 | Pioggia | 20 | 20 | 100 | 1016 | 14 | S/SE 9.3 | |
| Ieri h: 17:51 | Pioggia | 20 | 20 | 100 | 1016 | 14 | SE 9.3 | |
| Ieri h: 17:39 | Pioggia | 20 | 20 | 100 | 1016 | 14 | SE 9.3 | |
| Ieri h: 17:16 | Coperto | 20 | 20 | 100 | 1016 | 14 | SE 11.1 | |
| Ieri h: 17:10 | Coperto | 20 | 20 | 100 | 1016 | 14 | SE 9.3 | |
| Ieri h: 17:06 | Coperto | 20 | 20 | 100 | 1016 | 14 | SE 9.3 | |
| Ieri h: 17:00 | Pioggia | 20 | 20 | 100 | 1016 | 14 | SE 9.3 | |
| Ieri h: 16:37 | Pioggia | 19 | 19 | 100 | 1016 | 13 | S/SE 9.3 | |
| Ieri h: 16:33 | Coperto | 19 | 19 | 100 | 1016 | 14 | S/SE 7.4 | |
| Ieri h: 16:28 | Foschia | 19 | 19 | 100 | 1016 | 10 | S/SE 9.3 | |
| Ieri h: 16:15 | Foschia | 19 | 19 | 100 | 1016 | 8 | S/SE 11.1 | |
| Ieri h: 16:03 | Pioggia Foschia | 19 | 19 | 100 | 1016 | 5 | S/SE 11.1 | |
| Ieri h: 16:00 | Pioggia Foschia | 19 | 19 | 100 | 1016 | 2 | S/SE 9.3 | |
| Ieri h: 15:56 | Pioggia Foschia | 19 | 19 | 100 | 1016 | 2 | S/SE 11.1 | |
| Ieri h: 15:44 | Pioggia Foschia | 20 | 20 | 100 | 1016 | 5 | S/SE 13 | |
| Ieri h: 15:33 | Foschia | 19 | 19 | 100 | 1016 | 3 | S/SE 9.3 | |
| Ieri h: 15:00 | Foschia | 20 | 20 | 100 | 1017 | 6 | S/SE 9.3 | |
| Ieri h: 14:44 | Foschia | 20 | 20 | 100 | 1017 | 5 | S/SE 11.1 | |
| Ieri h: 14:42 | Pioggia Foschia | 20 | 20 | 100 | 1017 | 2 | S/SE 11.1 | |
| Ieri h: 14:18 | Pioggia Foschia | 20 | 20 | 100 | 1017 | 5 | S/SE 9.3 | |
| Ieri h: 14:06 | Foschia | 20 | 20 | 100 | 1017 | 2 | S/SE 13 | |
| Ieri h: 14:00 | Pioggia Foschia | 19 | 19 | 100 | 1017 | 5 | S/SE 11.1 | |
| Ieri h: 13:53 | Pioggia Foschia | 20 | 20 | 100 | 1017 | 2 | S/SE 11.1 | |
| Ieri h: 13:52 | Pioggia Foschia | 20 | 20 | 100 | 1017 | 2 | S/SE 9.3 | |
| Ieri h: 13:48 | Foschia | 19 | 19 | 100 | 1017 | 5 | S/SE 9.3 | |
| Ieri h: 13:44 | Foschia | 19 | 19 | 100 | 1017 | 2 | S 13 | |
| Ieri h: 13:42 | Foschia | 19 | 19 | 100 | 1017 | 2 | S/SE 13 | |
| Ieri h: 13:41 | Foschia | 19 | 19 | 100 | 1017 | 5 | S/SE 11.1 | |
| Ieri h: 13:25 | Foschia | 20 | 19 | 93 | 1017 | 6 | S/SE 14.8 | |
| Ieri h: 13:20 | Foschia | 20 | 19 | 93 | 1017 | 8 | SE 13 | |
| Ieri h: 13:05 | Foschia | 20 | 19 | 93 | 1017 | 10 | S 7.4 | |
| Ieri h: 13:00 | Foschia | 20 | 19 | 93 | 1017 | 6 | S/SE 9.3 | |
| Ieri h: 12:49 | Foschia | 20 | 19 | 93 | 1017 | 8 | S/SE 11.1 | |
| Ieri h: 12:46 | Coperto | 20 | 19 | 93 | 1017 | 11 | S/SE 16.7 | |
| Ieri h: 12:10 | Coperto | 20 | 19 | 93 | 1017 | 14 | S/SE 13 | |
| Ieri h: 12:00 | Coperto | 20 | 19 | 93 | 1018 | 14 | SE 11.1 | |
| Ieri h: 11:37 | Coperto | 20 | 19 | 93 | 1018 | 14 | SE 11.1 | |
| Ieri h: 11:00 | Coperto | 19 | 19 | 100 | 1017 | 14 | SE 11.1 | |
| Ieri h: 10:59 | Coperto | 19 | 19 | 100 | 1017 | 14 | SE 11.1 | |
| Ieri h: 10:00 | Coperto | 19 | 19 | 100 | 1017 | 14 | SE 7.4 | |



